TimeCDT,TemperatureF,Dew PointF,Humidity,Sea Level PressureIn,VisibilityMPH,Wind Direction,Wind SpeedMPH,Gust SpeedMPH,PrecipitationIn,Events,Conditions,WindDirDegrees,DateUTC
12:15 AM,32.0,18.5,58,30.02,10.0,WNW,15.0,21.9,N/A,,Clear,290,2013-03-19 05:15:00
12:35 AM,32.0,18.0,56,30.00,10.0,WNW,13.8,18.4,N/A,,Clear,290,2013-03-19 05:35:00
12:55 AM,32.0,18.0,56,30.00,10.0,West,10.4,20.7,N/A,,Clear,280,2013-03-19 05:55:00
1:15 AM,31.6,18.5,58,30.00,10.0,West,12.7,17.3,N/A,,Clear,270,2013-03-19 06:15:00
1:35 AM,31.6,18.1,57,30.00,10.0,West,9.2,-,N/A,,Clear,270,2013-03-19 06:35:00
1:55 AM,31.6,18.3,58,30.01,10.0,West,13.8,-,N/A,,Clear,270,2013-03-19 06:55:00
2:15 AM,31.5,18.5,59,30.01,10.0,West,11.5,-,N/A,,Clear,280,2013-03-19 07:15:00
2:35 AM,32.0,17.6,55,30.02,10.0,West,13.8,19.6,N/A,,Clear,280,2013-03-19 07:35:00
2:55 AM,31.5,17.6,57,30.02,10.0,West,15.0,20.7,N/A,,Clear,280,2013-03-19 07:55:00
3:15 AM,31.1,17.8,58,30.02,10.0,West,11.5,17.3,N/A,,Clear,270,2013-03-19 08:15:00
3:35 AM,30.9,17.8,58,30.02,10.0,West,11.5,17.3,N/A,,Clear,270,2013-03-19 08:35:00
3:55 AM,30.7,17.8,59,30.02,10.0,West,11.5,17.3,N/A,,Clear,270,2013-03-19 08:55:00
4:15 AM,30.6,18.0,60,30.03,10.0,West,11.5,17.3,N/A,,Clear,280,2013-03-19 09:15:00
4:35 AM,30.4,17.6,59,30.04,10.0,West,15.0,23.0,N/A,,Clear,280,2013-03-19 09:35:00
4:55 AM,30.2,17.8,60,30.04,10.0,West,12.7,17.3,N/A,,Clear,280,2013-03-19 09:55:00
5:15 AM,30.2,17.6,60,30.05,10.0,WNW,13.8,20.7,N/A,,Clear,290,2013-03-19 10:15:00
5:35 AM,29.8,17.2,59,30.05,10.0,WNW,10.4,21.9,N/A,,Clear,290,2013-03-19 10:35:00
5:55 AM,29.5,16.0,57,30.05,10.0,West,15.0,23.0,N/A,,Clear,280,2013-03-19 10:55:00
6:15 AM,29.1,16.0,58,30.06,10.0,WNW,10.4,-,N/A,,Clear,290,2013-03-19 11:15:00
6:35 AM,28.9,16.5,60,30.07,10.0,West,8.1,-,N/A,,Clear,280,2013-03-19 11:35:00
6:55 AM,28.4,17.1,63,30.08,10.0,West,5.8,-,N/A,,Clear,280,2013-03-19 11:55:00
7:15 AM,28.4,15.6,59,30.09,10.0,WNW,8.1,17.3,N/A,,Clear,290,2013-03-19 12:15:00
7:35 AM,28.4,15.4,58,30.09,10.0,WNW,12.7,-,N/A,,Clear,290,2013-03-19 12:35:00
7:55 AM,28.8,13.3,52,30.10,10.0,WNW,9.2,-,N/A,,Clear,300,2013-03-19 12:55:00
8:15 AM,29.1,12.9,51,30.11,10.0,WNW,13.8,21.9,N/A,,Clear,300,2013-03-19 13:15:00
8:35 AM,29.3,13.3,51,30.12,10.0,NW,15.0,19.6,N/A,,Clear,310,2013-03-19 13:35:00
8:55 AM,29.7,13.6,51,30.13,10.0,NW,12.7,18.4,N/A,,Clear,310,2013-03-19 13:55:00
9:15 AM,30.2,13.5,50,30.14,10.0,West,11.5,16.1,N/A,,Clear,280,2013-03-19 14:15:00
9:35 AM,30.9,14.0,50,30.15,10.0,WNW,11.5,-,N/A,,Clear,300,2013-03-19 14:35:00
9:55 AM,31.6,14.0,48,30.16,10.0,WNW,12.7,-,N/A,,Clear,290,2013-03-19 14:55:00
10:15 AM,32.0,12.9,45,30.17,10.0,WNW,11.5,18.4,N/A,,Clear,290,2013-03-19 15:15:00
10:35 AM,32.4,13.1,45,30.18,10.0,West,12.7,18.4,N/A,,Clear,280,2013-03-19 15:35:00
10:55 AM,32.9,11.1,40,30.19,10.0,WNW,13.8,20.7,N/A,,Clear,290,2013-03-19 15:55:00
11:15 AM,34.0,13.8,44,30.19,10.0,West,12.7,17.3,N/A,,Clear,270,2013-03-19 16:15:00
11:35 AM,34.7,12.9,41,30.20,10.0,West,15.0,-,N/A,,Clear,270,2013-03-19 16:35:00
11:55 AM,35.8,13.8,41,30.20,10.0,West,11.5,-,N/A,,Clear,270,2013-03-19 16:55:00
12:15 PM,36.3,12.2,37,30.21,10.0,WNW,12.7,19.6,N/A,,Clear,290,2013-03-19 17:15:00
12:35 PM,37.2,12.7,37,30.21,10.0,West,12.7,16.1,N/A,,Clear,270,2013-03-19 17:35:00
12:55 PM,37.6,10.8,33,30.20,10.0,West,11.5,17.3,N/A,,Clear,280,2013-03-19 17:55:00
1:15 PM,38.3,14.4,38,30.21,10.0,WSW,13.8,17.3,N/A,,Clear,250,2013-03-19 18:15:00
1:35 PM,39.0,14.4,37,30.21,10.0,West,11.5,16.1,N/A,,Clear,260,2013-03-19 18:35:00
1:55 PM,39.4,13.8,35,30.20,10.0,West,10.4,-,N/A,,Clear,260,2013-03-19 18:55:00
2:15 PM,41.0,12.9,32,30.19,10.0,WNW,10.4,17.3,N/A,,Clear,300,2013-03-19 19:15:00
2:35 PM,41.4,13.6,32,30.19,10.0,West,11.5,-,N/A,,Clear,280,2013-03-19 19:35:00
2:55 PM,42.1,14.5,33,30.18,10.0,WNW,9.2,17.3,N/A,,Clear,290,2013-03-19 19:55:00
3:15 PM,42.6,13.3,30,30.18,10.0,West,8.1,-,N/A,,Clear,260,2013-03-19 20:15:00
3:35 PM,43.0,14.0,31,30.18,10.0,West,8.1,16.1,N/A,,Clear,260,2013-03-19 20:35:00
3:55 PM,43.0,12.7,29,30.18,10.0,West,9.2,16.1,N/A,,Clear,280,2013-03-19 20:55:00
4:15 PM,43.3,13.8,30,30.18,10.0,West,9.2,-,N/A,,Clear,260,2013-03-19 21:15:00
4:35 PM,43.0,15.3,33,30.18,10.0,WSW,8.1,-,N/A,,Clear,250,2013-03-19 21:35:00
4:55 PM,43.3,14.5,31,30.18,10.0,West,6.9,-,N/A,,Clear,260,2013-03-19 21:55:00
5:15 PM,43.3,12.7,29,30.18,10.0,West,9.2,-,N/A,,Clear,260,2013-03-19 22:15:00
5:35 PM,43.3,14.5,31,30.18,10.0,WSW,9.2,-,N/A,,Clear,250,2013-03-19 22:35:00
5:55 PM,43.0,14.9,32,30.18,10.0,WSW,9.2,-,N/A,,Clear,250,2013-03-19 22:55:00
6:15 PM,43.2,15.3,32,30.18,10.0,WSW,8.1,-,N/A,,Clear,250,2013-03-19 23:15:00
6:35 PM,42.4,15.8,34,30.19,10.0,WSW,10.4,-,N/A,,Clear,240,2013-03-19 23:35:00
6:55 PM,41.4,17.8,39,30.19,10.0,SW,6.9,-,N/A,,Clear,230,2013-03-19 23:55:00
7:15 PM,40.1,17.4,40,30.19,10.0,SW,5.8,-,N/A,,Clear,230,2013-03-20 00:15:00
7:35 PM,39.2,17.4,41,30.19,10.0,WSW,4.6,-,N/A,,Clear,250,2013-03-20 00:35:00
7:55 PM,37.9,18.3,45,30.19,10.0,WSW,4.6,-,N/A,,Clear,240,2013-03-20 00:55:00
8:15 PM,37.8,17.4,44,30.18,10.0,WSW,4.6,-,N/A,,Clear,240,2013-03-20 01:15:00
8:35 PM,36.5,17.8,47,30.18,10.0,SW,3.5,-,N/A,,Clear,220,2013-03-20 01:35:00
8:55 PM,36.3,18.0,47,30.18,10.0,SSW,4.6,-,N/A,,Clear,210,2013-03-20 01:55:00
9:15 PM,36.3,17.2,46,30.18,10.0,WSW,4.6,-,N/A,,Clear,250,2013-03-20 02:15:00
9:35 PM,35.2,18.5,51,30.19,10.0,West,5.8,-,N/A,,Clear,260,2013-03-20 02:35:00
9:55 PM,35.8,19.0,51,30.19,10.0,WSW,5.8,-,N/A,,Clear,250,2013-03-20 02:55:00
10:15 PM,35.4,19.2,52,30.19,10.0,WSW,5.8,-,N/A,,Clear,250,2013-03-20 03:15:00
10:35 PM,35.6,19.9,53,30.18,10.0,WSW,5.8,-,N/A,,Clear,240,2013-03-20 03:35:00
10:55 PM,36.0,19.6,51,30.18,10.0,WSW,9.2,-,N/A,,Clear,240,2013-03-20 03:55:00
11:15 PM,35.6,19.9,53,30.18,10.0,WSW,8.1,-,N/A,,Clear,250,2013-03-20 04:15:00
11:35 PM,35.6,19.8,53,30.17,10.0,WSW,6.9,-,N/A,,Clear,250,2013-03-20 04:35:00
11:55 PM,34.7,20.1,55,30.17,10.0,WSW,4.6,-,N/A,,Clear,240,2013-03-20 04:55:00